Rbgn^[z[y[W
メイン
   新天体発見情報
     Comet P/2005 GF8 = 2018 X1 (LONEOS)
投稿するにはまず登録を

スレッド表示 | 古いものから 前のトピック | 次のトピック | 下へ
投稿者 スレッド
佐藤裕久
投稿日時: 2018-12-22 4:11
モデレータ
登録日: 2005-6-12
居住地: 日本
投稿: 2010
オンライン
Comet P/2005 GF8 = 2018 X1 (LONEOS)

Erwin Schwab (Egelsbach, ドイツ)の通報によると、12月4日、D. Abreuと12月6日、P. Ruizがスペイン
領カナリア諸島Tenerife島にあるESA(欧州宇宙機関)の光学地上局の1.0-m f/4.4反射望遠鏡で得た画像
からP/2005 GF8を検出した。スタックされた画像(各夜の全露出時間600秒)でコマまたは尾は見えなかっ
た。ICQ's 2018 Comet Handbookの中野主一氏の予報に対してDelta(T)は、-1.44 daysであった。

検出位置は次のとおり、

     2018 UT             R.A. (2000) Decl.       Mag.   Observer
     Dec.  4.24922   12 33 29.94   - 4 22 28.6   20.6   Abreu
           4.25677   12 33 30.41   - 4 22 31.7   20.3     "
           4.26432   12 33 30.85   - 4 22 34.6   20.5     "
           6.24589   12 35 30.67   - 4 35 56.9   20.9   Ruiz
           6.25343   12 35 31.17   - 4 36 00.4   20.4     "
           6.26098   12 35 31.53   - 4 36 02.8   21.2     "

連結軌道要素と位置推算表は次のとおり、

Orbital elements:
    P/2005 GF8 (LONEOS)
Epoch 2005 Aug. 18.0 TT = JDT 2453600.5
T 2005 Aug. 17.52103 TT                                 MPCW
q   2.8295406            (2000.0)            P               Q
n   0.06956035     Peri.  285.33312     -0.49226806     +0.87032064
a   5.8554669      Node   315.16747     -0.79044283     -0.45400179
e   0.5167694      Incl.    1.18932     -0.36451653     -0.19085168
P  14.17
From 203 observations 2005 Apr. 2-2018 Dec. 6, mean residual 0".5.

    P/2005 GF8 (LONEOS)
Epoch 2019 Oct. 4.0 TT = JDT 2458760.5
T 2019 Sept. 29.17949 TT                                MPCW
q   2.8309423            (2000.0)            P               Q
n   0.06943162     Peri.  285.39253     -0.49563322     +0.86840680
a   5.8627026      Node   314.88620     -0.78866977     -0.45710445
e   0.5171267      Incl.    1.19230     -0.36379624     -0.19215919
P  14.20
From 203 observations 2005 Apr. 2-2018 Dec. 6, mean residual 0".5.

    P/2005 GF8 (LONEOS)
Epoch 2033 June 12.0 TT = JDT 2463760.5
T 2033 June 25.20671 TT                                 MPCW
q   2.7699263            (2000.0)            P               Q
n   0.07194605     Peri.  285.84630     -0.52361252     +0.85182343
a   5.7252976      Node   312.56885     -0.77362173     -0.48279744
e   0.5161952      Incl.    1.17168     -0.35684640     -0.20323259
P  13.70
From 203 observations 2005 Apr. 2-2018 Dec. 6, mean residual 0".5.

    P/2005 GF8 (LONEOS)
Epoch 2019 Apr. 27.0 TT = JDT 2458600.5
T 2019 Sept. 29.24212 TT                                MPCW
q   2.8309170            (2000.0)            P               Q
n   0.06954773     Peri.  285.38751     -0.49543395     +0.86852057
a   5.8561752      Node   314.90437     -0.78877384     -0.45692091
e   0.5165928      Incl.    1.19231     -0.36384204     -0.19208148
P  14.17
From 203 observations 2005 Apr. 2-2018 Dec. 6, mean residual 0".5.

Ephemeris:
    P/2005 GF8 (LONEOS)
Date    TT    R. A. (2000) Decl.     Delta      r     Elong.  Phase   m1
2018 11 06    12 03 11.5 -00 59 07   4.3143  3.6404    42.1    10.5  21.3
...
2018 11 21    12 19 39.2 -02 49 35   4.0915  3.5806    52.7    12.7  21.1
...
2018 11 29    12 28 06.4 -03 46 19   3.9633  3.5491    58.5    13.7  21.0
...
2018 12 05    12 34 15.4 -04 27 32   3.8636  3.5257    62.9    14.4  20.9
2018 12 06    12 35 15.7 -04 34 16   3.8467  3.5218    63.6    14.5  20.9
2018 12 07    12 36 15.8 -04 40 59   3.8297  3.5179    64.4    14.6  20.9
...
2018 12 13    12 42 08.5 -05 20 20   3.7266  3.4947    68.9    15.2  20.8
...
2018 12 21    12 49 36.2 -06 10 14   3.5861  3.4641    75.0    15.9  20.7
...
2019 01 05    13 02 10.6 -07 34 24   3.3174  3.4078    86.9    16.7  20.4

(CBET 4581、MPEC 2018-X49)

スレッド表示 | 古いものから 前のトピック | 次のトピック | トップ

投稿するにはまず登録を
 
© 1999 Tsutomu Seki.